Regional Weather Roundup
Issued by NWS Spokane, WA

Home | Current Version | Previous Version | Text Only | Print | Product List | Glossary On
Versions: 1 2 3 4 5 6 7 8 9 10 11 12 13 14 15 16 17 18 19 20 21 22 23 24 25 26 27 28 29 30 31 32 33 34 35 36 37 38 39 40 41 42 43 44 45 46 47 48 49 50
000
NZUS01 KOTX 302210
RWROTX
EASTERN WASHINGTON/NORTHERN IDAHO ROUNDUP
NATIONAL WEATHER SERVICE, SPOKANE WA
300 PM PDT MON MAY 30 2016

Note: "fair" indicated few or no clouds below 12,000 feet with no
significant weather and/or obstructions to visibility.

...NORTHEAST WASHINGTON AND NORTHERN IDAHO PANHANDLE...

CITY           SKY/WX    TMP DP  RH WIND       PRES   REMARKS
SPOKANE INTL   MOSUNNY   68  30  24 VRB5      30.19F
SPOKANE DOWNTO SUNNY     69  32  25 NW7G14    30.19F
COEUR D ALENE  SUNNY     68  36  30 SW3G16    30.16F
DEER PARK      SUNNY     68  32  26 VRB3      30.19F
SANDPOINT      MOSUNNY   68  36  30 SE6G17    30.17S
BONNERS FERRY  FAIR      66  39  37 CALM      30.17F

...SOUTHEAST WASHINGTON AND SOUTHERN IDAHO PANHANDLE...

CITY           SKY/WX    TMP DP  RH WIND       PRES   REMARKS
WALLA WALLA    SUNNY     71  33  24 CALM      30.18F
PULLMAN/MOSCOW SUNNY     66  32  28 MISG      30.23F
LEWISTON       SUNNY     72  31  22 CALM      30.18F
LOWELL           N/A     73  36  25 VRB5      30.15F

...COLUMBIA BASIN...

CITY           SKY/WX    TMP DP  RH WIND       PRES   REMARKS
EPHRATA        SUNNY     74  31  20 W9        30.17F
MOSES LAKE     SUNNY     73  32  22 VRB3      30.19F
TRI CITIES     SUNNY     75  33  21 E6        30.19F
HERMISTON      SUNNY     75  35  23 VRB7      30.17F
PENDLETON      SUNNY     72  32  23 MISG      30.17F

...EAST SLOPES CASCADES...

CITY           SKY/WX    TMP DP  RH WIND       PRES   REMARKS
THE DALLES     SUNNY     79  36  21 S6        30.15F
YAKIMA         SUNNY     75  30  19 SE5       30.18F
ELLENSBURG     SUNNY     74  28  18 VRB5      30.18F
STAMPEDE PASS  SUNNY     61  34  36 VRB5      30.25S
WENATCHEE      SUNNY     75  25  15 NE6       30.16F
OMAK           SUNNY     74  28  18 VRB7      30.16F

...SOUTHERN BRITISH COLUMBIA...

CITY           SKY/WX    TMP DP  RH WIND       PRES   REMARKS
PENTICTON      MOSUNNY   72  43  35 N8        30.17F
CASTLEGAR      PTSUNNY   70  39  32 VRB8      30.15F
CRANBROOK      MOSUNNY   64  36  34 VRB7      30.13F

...WESTERN MONTANA...

CITY           SKY/WX    TMP DP  RH WIND       PRES   REMARKS
MISSOULA       MOSUNNY   68  35  29 N10G20    30.13F

...NEIGHBORING CITIES...

CITY           SKY/WX    TMP DP  RH WIND       PRES   REMARKS
SEATTLE        MOSUNNY   71  43  36 N10       30.26F
CALGARY        MOSUNNY   59  36  41 N24G33    30.14F



USA.gov is the U.S. government's official web portal to all federal, state and local government web resources and services.